Regional Weather Roundup
Issued by NWS

Home | Current Version | Previous Version | Text Only | Print | Product List | Glossary Off
Versions: 1 2 3 4 5 6 7 8 9 10 11 12 13 14 15 16 17 18 19 20 21 22 23 24 25 26 27 28 29 30 31 32 33 34 35 36 37 38 39 40 41 42 43 44 45 46 47 48 49 50

000
ASUS43 KLMK 252210
RWRKY
KENTUCKY REGIONAL WEATHER ROUNDUP
NATIONAL WEATHER SERVICE LOUISVILLE KY
500 PM EST SUN JAN 25 2015

NOTE "FAIR" INDICATES FEW OR NO CLOUDS BELOW 12,000 FEET
WITH NO SIGNIFICANT WEATHER AND/OR OBSTRUCTIONS TO VISIBILITY.

KYZ001>023-026-027-061>063-070>075-252300-
WESTERN AND SOUTH CENTRAL KENTUCKY

CITY           SKY/WX    TMP DP  RH WIND       PRES   REMARKS
PADUCAH        LGT RAIN  43  40  89 SW13      29.64R FOG
HENDERSON      CLOUDY    41  37  87 S8        29.61R
OWENSBORO      LGT RAIN  42  40  93 SW8       29.62R FOG
HOPKINSVILLE   MIX PCPN  43  41  93 W18       29.64R
BOWLING GREEN  LGT RAIN  47  41  80 SW9       29.63R
GLASGOW        LGT RAIN  48  39  69 W10G22    29.63R
$$

KYZ024-025-028>034-038-045-046-053-252300-
NORTH CENTRAL KENTUCKY

CITY           SKY/WX    TMP DP  RH WIND       PRES   REMARKS
LOUISVILLE/SDF LGT RAIN  44  38  79 CALM      29.63R
LOUISVILLE/LOU CLOUDY    43  38  82 CALM      29.63S
FORT KNOX      DRIZZLE   43  39  86 VRB2      29.61R FOG
$$

KYZ035>037-039>044-047>052-055>060-089>105-252300-
NORTHEAST KENTUCKY

CITY           SKY/WX    TMP DP  RH WIND       PRES   REMARKS
LEXINGTON      CLOUDY    43  34  70 SE5       29.64R
COVINGTON      LGT RAIN  39  36  89 E7        29.64S FOG     WCI  34
FRANKFORT      CLOUDY    41  36  82 E5        29.63R
$$

KYZ054-064>069-076>088-106>120-252300-
SOUTHEAST KENTUCKY

CITY           SKY/WX    TMP DP  RH WIND       PRES   REMARKS
JACKSON        LGT RAIN  47  32  56 VRB5      29.68R
LONDON         CLOUDY    50  30  46 S7        29.66F
SOMERSET       CLOUDY    48  32  53 S8        29.67R
MIDDLESBORO    DRIZZLE   48  34  58 CALM      29.70S
MONTICELLO     CLOUDY    50  35  56 SE10      29.67R
$$




USA.gov is the U.S. government's official web portal to all federal, state and local government web resources and services.